• Em Portugal
  • Lista de países
  • Para 7 dias
  • Temperatura da água
  • Mapas de satélite
  • Mapa do tempo
  • Widgets de tempo
  • user-avatar
    Iniciar Sessão

    Previsão horária em Pombal

    Hoje, 22 Outubro, Segunda-feira

    Tempo Temperatura Precipitação Vento Pressão Humidade
    00:00 +18°C° 0 mm 1 m/s 758 mmHg 83%
    01:00 +18°C° 0 mm 1 m/s 758 mmHg 84%
    02:00 +18°C° 0 mm 1 m/s 758 mmHg 85%
    03:00 +16°C° 0 mm 1 m/s 758 mmHg 86%
    04:00 +16°C° 0 mm 1 m/s 758 mmHg 86%
    05:00 +16°C° 0 mm 1 m/s 758 mmHg 87%
    06:00 +19°C° 0 mm 1 m/s 759 mmHg 80%
    07:00 +20°C° 0 mm 1 m/s 759 mmHg 73%
    08:00 +22°C° 0 mm 1 m/s 759 mmHg 66%
    09:00 +24°C° 0 mm 2 m/s 759 mmHg 58%
    10:00 +26°C° 0 mm 2 m/s 759 mmHg 49%
    11:00 +28°C° 0 mm 2 m/s 759 mmHg 41%
    12:00 +28°C° 0 mm 2 m/s 759 mmHg 39%
    13:00 +29°C° 0 mm 3 m/s 758 mmHg 38%
    14:00 +29°C° 0 mm 3 m/s 758 mmHg 36%
    15:00 +27°C° 0 mm 3 m/s 758 mmHg 41%
    16:00 +25°C° 0 mm 3 m/s 758 mmHg 47%
    17:00 +22°C° 0 mm 3 m/s 758 mmHg 52%
    18:00 +21°C° 0 mm 3 m/s 758 mmHg 53%
    19:00 +20°C° 0 mm 3 m/s 759 mmHg 53%
    20:00 +19°C° 0 mm 3 m/s 759 mmHg 54%
    21:00 +19°C° 0 mm 3 m/s 759 mmHg 53%
    22:00 +19°C° 0 mm 3 m/s 759 mmHg 53%
    23:00 +19°C° 0 mm 3 m/s 759 mmHg 52%

    Amanhã, 23 Outubro, Terça-feira

    Tempo Temperatura Precipitação Vento Pressão Humidade
    00:00 +18°C° 0 mm 3 m/s 759 mmHg 52%
    01:00 +18°C° 0 mm 3 m/s 759 mmHg 52%
    02:00 +18°C° 0 mm 3 m/s 759 mmHg 51%
    03:00 +18°C° 0 mm 3 m/s 759 mmHg 52%
    04:00 +17°C° 0 mm 3 m/s 759 mmHg 52%
    05:00 +17°C° 0 mm 3 m/s 760 mmHg 53%
    06:00 +18°C° 0 mm 4 m/s 760 mmHg 50%
    07:00 +20°C° 0 mm 4 m/s 760 mmHg 46%
    08:00 +21°C° 0 mm 4 m/s 761 mmHg 43%
    09:00 +23°C° 0 mm 4 m/s 761 mmHg 40%
    10:00 +26°C° 0 mm 3 m/s 761 mmHg 38%
    11:00 +27°C° 0 mm 3 m/s 761 mmHg 36%
    12:00 +28°C° 0 mm 3 m/s 760 mmHg 36%
    13:00 +28°C° 0 mm 2 m/s 760 mmHg 36%
    14:00 +29°C° 0 mm 2 m/s 760 mmHg 36%
    15:00 +27°C° 0 mm 2 m/s 760 mmHg 42%
    16:00 +25°C° 0 mm 2 m/s 760 mmHg 48%
    17:00 +23°C° 0 mm 2 m/s 760 mmHg 53%
    18:00 +21°C° 0 mm 2 m/s 760 mmHg 56%
    19:00 +20°C° 0 mm 2 m/s 761 mmHg 58%
    20:00 +20°C° 0 mm 2 m/s 761 mmHg 60%
    21:00 +19°C° 0 mm 2 m/s 761 mmHg 61%
    22:00 +19°C° 0 mm 2 m/s 761 mmHg 61%
    23:00 +19°C° 0 mm 2 m/s 761 mmHg 62%

    Depois de amanhã, 24 Outubro, Quarta-feira

    Tempo Temperatura Precipitação Vento Pressão Humidade
    00:00 +18°C° 0 mm 2 m/s 761 mmHg 63%
    01:00 +18°C° 0 mm 2 m/s 761 mmHg 63%
    02:00 +18°C° 0 mm 2 m/s 761 mmHg 64%
    03:00 +18°C° 0 mm 2 m/s 761 mmHg 66%
    04:00 +17°C° 0 mm 2 m/s 761 mmHg 67%
    05:00 +17°C° 0 mm 2 m/s 761 mmHg 68%
    06:00 +19°C° 0 mm 2 m/s 761 mmHg 63%
    07:00 +20°C° 0 mm 2 m/s 761 mmHg 58%
    08:00 +23°C° 0 mm 2 m/s 762 mmHg 53%
    09:00 +25°C° 0 mm 1 m/s 761 mmHg 48%
    10:00 +27°C° 0 mm 1 m/s 761 mmHg 42%
    11:00 +29°C° 0 mm 1 m/s 761 mmHg 36%
    12:00 +29°C° 0 mm 1 m/s 761 mmHg 36%
    13:00 +29°C° 0 mm 2 m/s 760 mmHg 35%
    14:00 +29°C° 0 mm 2 m/s 759 mmHg 35%
    15:00 +27°C° 0 mm 2 m/s 759 mmHg 40%
    16:00 +25°C° 0 mm 3 m/s 759 mmHg 46%
    17:00 +21°C° 0 mm 3 m/s 759 mmHg 52%
    18:00 +21°C° 0 mm 3 m/s 759 mmHg 53%
    19:00 +20°C° 0 mm 2 m/s 759 mmHg 55%
    20:00 +19°C° 0 mm 2 m/s 759 mmHg 57%
    21:00 +19°C° 0 mm 2 m/s 759 mmHg 56%
    22:00 +18°C° 0 mm 2 m/s 759 mmHg 56%
    23:00 +18°C° 0 mm 2 m/s 758 mmHg 56%

    25 Outubro, Quinta-feira

    Tempo Temperatura Precipitação Vento Pressão Humidade
    00:00 +18°C° 0 mm 2 m/s 758 mmHg 55%
    01:00 +18°C° 0 mm 1 m/s 758 mmHg 55%
    02:00 +18°C° 0 mm 1 m/s 757 mmHg 54%
    03:00 +18°C° 0 mm 1 m/s 757 mmHg 54%
    04:00 +18°C° 0 mm 1 m/s 757 mmHg 54%
    05:00 +16°C° 0 mm 1 m/s 757 mmHg 54%
    06:00 +19°C° 0 mm 1 m/s 757 mmHg 50%
    07:00 +20°C° 0 mm 1 m/s 757 mmHg 46%
    08:00 +22°C° 0 mm 1 m/s 757 mmHg 42%
    09:00 +24°C° 0 mm 1 m/s 757 mmHg 37%
    10:00 +27°C° 0 mm 1 m/s 757 mmHg 33%
    11:00 +29°C° 0 mm 1 m/s 757 mmHg 29%
    12:00 +29°C° 0 mm 1 m/s 756 mmHg 29%
    13:00 +28°C° 0 mm 2 m/s 756 mmHg 29%
    14:00 +28°C° 0 mm 2 m/s 755 mmHg 29%
    15:00 +26°C° 0 mm 2 m/s 755 mmHg 35%
    16:00 +23°C° 0 mm 2 m/s 755 mmHg 41%
    17:00 +20°C° 0 mm 2 m/s 755 mmHg 46%
    18:00 +19°C° 0 mm 2 m/s 755 mmHg 48%
    19:00 +18°C° 0 mm 2 m/s 755 mmHg 50%
    20:00 +17°C° 0 mm 2 m/s 755 mmHg 52%
    21:00 +17°C° 0 mm 2 m/s 755 mmHg 53%
    22:00 +17°C° 0 mm 2 m/s 755 mmHg 54%
    23:00 +16°C° 0 mm 1 m/s 754 mmHg 54%

    26 Outubro, Sexta-feira

    Tempo Temperatura Precipitação Vento Pressão Humidade
    00:00 +16°C° 0 mm 1 m/s 754 mmHg 56%
    01:00 +16°C° 0 mm 2 m/s 754 mmHg 57%
    02:00 +16°C° 0 mm 2 m/s 754 mmHg 59%
    03:00 +15°C° 0 mm 1 m/s 754 mmHg 60%
    04:00 +15°C° 0 mm 1 m/s 754 mmHg 62%
    05:00 +15°C° 0 mm 1 m/s 754 mmHg 63%
    06:00 +16°C° 0 mm 1 m/s 754 mmHg 59%
    07:00 +19°C° 0 mm 1 m/s 754 mmHg 55%
    08:00 +20°C° 0 mm 1 m/s 754 mmHg 51%
    09:00 +22°C° 0 mm 1 m/s 754 mmHg 47%
    10:00 +24°C° 0 mm 2 m/s 754 mmHg 43%
    11:00 +26°C° 0 mm 2 m/s 754 mmHg 39%
    12:00 +25°C° 0 mm 3 m/s 753 mmHg 41%
    13:00 +25°C° 0 mm 3 m/s 753 mmHg 43%
    14:00 +25°C° 0 mm 4 m/s 752 mmHg 45%
    15:00 +22°C° 0 mm 4 m/s 753 mmHg 53%
    16:00 +20°C° 0 mm 4 m/s 753 mmHg 61%
    17:00 +17°C° 0 mm 5 m/s 753 mmHg 69%
    18:00 +16°C° 0 mm 5 m/s 753 mmHg 73%
    19:00 +15°C° 0 mm 6 m/s 754 mmHg 77%
    20:00 +15°C° 0 mm 6 m/s 754 mmHg 81%
    21:00 +15°C° 0 mm 7 m/s 754 mmHg 77%
    22:00 +14°C° 0 mm 7 m/s 755 mmHg 73%
    23:00 +13°C° 0 mm 8 m/s 755 mmHg 69%

    27 Outubro, Sábado

    Tempo Temperatura Precipitação Vento Pressão Humidade
    00:00 +12°C° 0 mm 7 m/s 755 mmHg 68%
    01:00 +12°C° 0 mm 7 m/s 755 mmHg 67%
    02:00 +11°C° 0 mm 7 m/s 755 mmHg 65%
    03:00 +11°C° 0 mm 7 m/s 756 mmHg 65%
    04:00 +10°C° 0 mm 7 m/s 756 mmHg 65%
    05:00 +10°C° 0 mm 7 m/s 757 mmHg 65%
    06:00 +11°C° 0 mm 7 m/s 757 mmHg 60%
    07:00 +11°C° 0 mm 7 m/s 757 mmHg 54%
    08:00 +12°C° 0 mm 8 m/s 758 mmHg 49%
    09:00 +13°C° 0 mm 8 m/s 758 mmHg 45%
    10:00 +16°C° 0 mm 8 m/s 758 mmHg 41%
    11:00 +17°C° 0 mm 8 m/s 757 mmHg 37%
    12:00 +17°C° 0 mm 9 m/s 757 mmHg 39%
    13:00 +17°C° 0 mm 9 m/s 756 mmHg 41%
    14:00 +17°C° 0 mm 9 m/s 756 mmHg 43%
    15:00 +15°C° 0 mm 9 m/s 756 mmHg 47%
    16:00 +13°C° 0 mm 9 m/s 756 mmHg 50%
    17:00 +12°C° 0 mm 8 m/s 757 mmHg 53%
    18:00 +11°C° 0 mm 8 m/s 757 mmHg 53%
    19:00 +10°C° 0 mm 7 m/s 757 mmHg 52%
    20:00 +9°C° 0 mm 7 m/s 757 mmHg 52%
    21:00 +9°C° 0 mm 6 m/s 757 mmHg 54%
    22:00 +8°C° 0 mm 6 m/s 757 mmHg 56%
    23:00 +8°C° 0 mm 5 m/s 757 mmHg 58%

    28 Outubro, Domingo

    Tempo Temperatura Precipitação Vento Pressão Humidade
    00:00 +8°C° 0.2 mm 5 m/s 756 mmHg 61%
    01:00 +8°C° 0.2 mm 5 m/s 756 mmHg 63%
    02:00 +8°C° 0.2 mm 6 m/s 755 mmHg 65%
    03:00 +8°C° 0.2 mm 6 m/s 755 mmHg 64%
    04:00 +8°C° 0.2 mm 6 m/s 755 mmHg 63%
    05:00 +8°C° 0.2 mm 6 m/s 755 mmHg 62%
    06:00 +8°C° 0 mm 6 m/s 755 mmHg 57%
    07:00 +9°C° 0 mm 7 m/s 755 mmHg 52%
    08:00 +9°C° 0 mm 7 m/s 755 mmHg 47%
    09:00 +11°C° 0 mm 7 m/s 755 mmHg 43%
    10:00 +12°C° 0 mm 7 m/s 755 mmHg 38%
    11:00 +14°C° 0 mm 7 m/s 755 mmHg 34%
    12:00 +14°C° 0 mm 7 m/s 754 mmHg 34%
    13:00 +14°C° 0 mm 7 m/s 754 mmHg 33%
    14:00 +15°C° 0 mm 7 m/s 754 mmHg 33%
    15:00 +13°C° 0 mm 6 m/s 754 mmHg 38%
    16:00 +11°C° 0 mm 6 m/s 754 mmHg 43%
    17:00 +10°C° 0 mm 6 m/s 755 mmHg 48%
    18:00 +9°C° 0 mm 6 m/s 755 mmHg 51%
    19:00 +9°C° 0 mm 6 m/s 756 mmHg 54%
    20:00 +8°C° 0 mm 6 m/s 756 mmHg 57%
    21:00 +8°C° 0 mm 5 m/s 756 mmHg 59%
    22:00 +7°C° 0 mm 5 m/s 756 mmHg 61%
    23:00 +6°C° 0 mm 5 m/s 756 mmHg 63%
    Mostrar mais